This demonstration page uses our WeatherBlox Daily Observations layout. Learn more.

Left ArrowRight Arrow

Hourly Observations for May 16, 2019

Temp ( °F °C ) Dew Point ( °F °C ) Humidity (%) Winds ( mph kmh ) Pressure ( in mb ) Visibility ( mi km ) Precip ( " mm )
12:52 am 00:52 Clear 71 21.7 61 16.1 71 71 SSE 8 13 29.77 1008 10 16 0.00 0.00
1:52 am 01:52 Clear 72 22.2 62 16.7 71 71 SSE 12 19 29.76 1008 10 16 0.00 0.00
2:52 am 02:52 Partly Cloudy 72 22.2 63 17.2 73 73 S 15 24 29.72 1007 10 16 0.00 0.00
3:52 am 03:52 Partly Cloudy 72 22.2 64 17.8 76 76 S 13 20 29.70 1006 10 16 0.00 0.00
4:52 am 04:52 Partly Cloudy 71 21.7 64 17.8 79 79 S 10 17 29.69 1005 10 16 0.00 0.00
5:52 am 05:52 Partly Cloudy 69 20.6 64 17.8 84 84 SSE 9 15 29.67 1005 10 16 0.00 0.00
6:52 am 06:52 Partly Cloudy 69 20.6 63 17.2 81 81 SSE 9 15 29.69 1006 10 16 0.00 0.00
7:52 am 07:52 Mostly Sunny 73 22.8 61 16.1 66 66 SSW 6 9 29.70 1006 10 16 0.00 0.00
8:52 am 08:52 Mostly Sunny 76 24.4 60 15.6 58 58 SW 9 15 29.71 1006 10 16 0.00 0.00
9:52 am 09:52 Mostly Sunny 80 26.7 60 15.6 51 51 SW 6 9 29.71 1006 10 16 0.00 0.00
10:52 am 10:52 Mostly Sunny 83 28.3 60 15.6 46 46 SW 8 13 29.70 1006 10 16 0.00 0.00
11:52 am 11:52 Partly Cloudy 86 30 60 15.6 42 42 VRB 6 9 29.70 1006 10 16 0.00 0.00
12:52 pm 12:52 Partly Cloudy 88 31.1 60 15.6 39 39 SSW 9 15 29.67 1005 10 16 0.00 0.00
1:52 pm 13:52 Partly Cloudy 91 32.8 55 12.8 30 30 S 6 9 29.66 1004 10 16 0.00 0.00
2:52 pm 14:52 Partly Cloudy 92 33.3 60 15.6 34 34 VRB 6 9 29.64 1004 10 16 0.00 0.00
3:52 pm 15:52 Partly Cloudy 93 33.9 61 16.1 34 34 S 7 11 29.62 1003 10 16 0.00 0.00
4:52 pm 16:52 Partly Cloudy 93 33.9 62 16.7 36 36 E 3 6 29.60 1002 10 16 0.00 0.00
5:52 pm 17:52 Cloudy 95 35 59 15 30 30 SSW 16 26 29.59 1002 10 16 0.00 0.00
6:52 pm 18:52 Cloudy 93 33.9 60 15.6 33 33 SW 12 19 29.59 1002 10 16 0.00 0.00
7:52 pm 19:52 Cloudy 91 32.8 60 15.6 35 35 S 10 17 29.58 1002 10 16 0.00 0.00
8:52 pm 20:52 Cloudy 89 31.7 61 16.1 39 39 S 10 17 29.59 1002 10 16 0.00 0.00
9:08 pm 21:08 Cloudy with Thunderstorms 88 31.1 61 16.1 40 40 VRB 3 6 29.57 1001 10 16 0.00 0.00
9:09 pm 21:09 Cloudy with Thunderstorms 88 31.1 61 16.1 40 40 VRB 5 7 29.58 1002 10 16 0.00 0.00
9:22 pm 21:22 Cloudy with Nearby Thunderstorms 81 27.2 60 15.6 49 49 N 12 19 29.61 1003 10 16 0.00 0.03
9:52 pm 21:52 Cloudy 80 26.7 59 15 49 49 VRB 6 9 29.65 1004 10 16 0.00 0.00
10:52 pm 22:52 Cloudy 75 23.9 59 15 58 58 SE 9 15 29.66 1004 10 16 0.00 0.00
11:52 pm 23:52 Cloudy 73 22.8 58 14.4 59 59 SE 9 15 29.66 1005 10 16 0.00 0.00

Powered by AerisWeather